Wind_Speed
17 17 17 18 18 18 19 20 21 22 23 25 26 27 29 30 32 33 35 37 38 39 38 38 37 36 36 35 34 33 33 33 33 33 33 33 33 34 35 35 35 36 36 36 37 38 39 39 40 40 41 43 43 43 44 45 47 48 48 49 50 50 51 52 56 62 63 62 61 62 62 61 62 61 60 59 58 58 57 57 56 55 54 53 52
18 19 19 19 19 20 21 22 24 25 26 27 29 31 32 34 35 36 37 38 39 39 38 37 36 35 34 34 34 34 34 34 34 35 35 35 35 36 36 36 37 37 37 38 38 39 40 40 41 42 43 44 45 45 46 47 48 49 50 50 51 51 51 52 55 59 63 62 61 62 61 60 60 60 59 58 58 57 57 56 55 55 54 53 53
20 21 21 21 21 22 24 25 26 27 28 30 31 33 34 35 36 37 38 38 39 39 38 36 35 35 34 34 35 35 35 36 36 36 37 37 37 38 38 38 39 39 40 40 40 41 42 42 42 43 44 45 45 46 47 48 49 50 50 50 51 52 51 53 55 57 61 62 61 60 59 59 58 58 57 57 56 55 55 55 54 54 53 53 54
22 23 23 23 24 25 26 27 27 28 30 32 34 35 36 37 37 38 38 39 40 39 38 37 36 35 35 36 36 36 36 37 37 38 38 39 39 40 40 41 42 43 43 44 44 44 45 45 45 45 45 46 46 46 46 47 48 49 50 50 51 52 52 53 55 56 59 60 59 58 58 58 58 57 57 57 56 55 55 54 54 54 53 54 54
24 24 24 25 26 27 27 28 28 30 32 34 37 38 38 38 39 40 40 41 40 39 38 37 37 36 36 36 37 37 37 38 38 39 40 41 42 42 43 44 44 45 45 45 45 46 46 46 46 46 46 47 47 47 47 48 49 50 51 51 52 53 54 55 57 58 60 61 61 59 59 60 61 60 60 60 59 58 58 57 56 56 56 56 55
24 25 25 27 28 28 29 29 31 32 34 36 39 40 41 41 42 42 42 41 41 40 39 38 37 37 37 37 37 38 39 39 40 41 42 43 44 45 45 46 46 46 46 45 45 46 46 47 47 47 47 49 49 49 50 51 52 53 54 54 56 57 58 59 60 62 63 64 65 64 63 63 64 64 63 63 63 63 62 60 59 59 58 58 57
26 26 28 29 29 30 30 31 33 34 35 36 39 42 43 43 44 43 42 41 40 39 39 38 38 38 38 39 39 39 40 41 42 44 45 46 46 47 47 46 46 46 46 46 46 46 47 47 48 49 50 51 52 53 54 55 55 56 57 58 59 60 61 62 62 64 65 65 66 66 65 65 65 66 65 64 65 65 63 63 62 62 61 60 59
27 29 30 31 31 31 31 32 34 35 36 37 40 42 44 45 45 43 42 41 40 39 39 39 39 39 39 40 40 41 42 43 44 45 46 46 47 47 47 47 47 48 47 47 48 48 49 50 51 52 53 54 55 56 57 58 59 59 59 60 61 62 63 64 64 65 65 66 66 66 66 66 66 66 66 65 65 64 63 63 64 63 62 62 61
29 31 32 32 32 32 32 34 36 37 38 39 41 43 45 45 44 43 41 40 39 39 39 39 39 39 40 40 41 42 43 44 45 45 46 47 48 48 49 49 50 51 51 51 51 51 52 53 53 55 56 56 57 58 59 60 61 62 62 63 64 64 65 66 66 66 66 67 68 67 68 69 68 68 67 66 66 64 63 64 64 63 63 63 62
30 32 33 33 33 34 34 36 37 39 39 40 41 44 45 45 43 41 40 39 39 39 39 39 40 40 41 42 42 42 42 43 44 44 46 48 49 50 51 52 53 54 55 55 55 55 55 56 56 57 58 59 59 60 61 61 62 63 64 65 65 66 67 67 67 67 68 68 69 69 70 70 70 69 68 68 67 65 64 63 63 62 61 61 60
31 32 33 33 34 35 36 37 39 40 40 40 41 43 45 44 42 40 39 39 39 39 39 40 41 42 43 44 43 43 42 42 43 44 45 47 49 52 53 54 55 56 57 58 59 59 59 60 60 61 61 62 62 63 63 64 64 65 66 66 66 67 67 68 68 67 67 68 68 68 70 71 70 69 68 68 66 64 63 63 62 61 59 57 56
32 33 33 34 34 35 37 39 40 41 41 40 41 43 44 43 41 40 39 39 39 39 40 42 43 44 45 45 45 44 43 43 44 45 47 48 50 53 54 56 57 58 59 61 62 62 63 63 64 64 65 66 66 66 67 67 67 68 68 68 67 67 66 66 67 66 66 66 67 67 68 69 69 68 67 66 64 63 63 62 61 59 56 54 53
32 32 33 33 34 35 39 42 43 42 41 41 42 43 43 42 41 40 39 40 40 41 42 44 45 45 46 45 45 44 44 45 46 47 49 50 52 54 56 58 59 61 62 63 64 65 67 67 68 68 68 69 70 70 71 71 71 71 71 70 69 68 67 66 66 66 65 64 65 66 66 66 67 67 65 63 61 61 61 60 58 55 54 52 50
33 33 34 33 34 37 42 44 44 42 41 41 42 42 41 41 40 40 41 41 42 43 45 45 46 45 45 45 45 46 46 47 49 50 51 53 55 57 59 61 62 63 65 66 67 68 69 70 71 71 71 72 72 72 72 72 72 73 73 72 71 70 69 69 68 67 65 65 65 66 65 63 64 64 62 59 58 57 56 56 54 53 52 51 49
35 35 35 34 35 39 43 45 44 42 42 41 41 41 40 40 40 41 42 43 44 46 46 46 46 45 45 46 47 48 48 49 51 52 54 56 58 59 61 63 65 66 67 67 68 69 70 71 71 72 72 72 71 71 71 71 72 72 73 72 71 70 69 69 69 68 67 66 67 67 65 63 62 61 59 56 54 53 52 51 51 52 51 49 48
38 38 36 35 36 40 44 45 44 43 42 41 40 40 40 40 41 42 44 45 46 46 46 46 45 46 46 47 48 49 50 51 53 55 56 58 60 61 63 65 66 67 67 67 68 69 70 70 71 71 72 72 71 70 70 71 72 72 72 72 70 70 69 68 67 67 67 67 68 68 66 64 62 60 56 53 52 50 49 49 50 50 49 48 47
41 40 37 37 38 41 44 45 44 42 41 40 39 39 40 41 42 44 45 46 46 46 45 45 46 47 48 49 50 51 52 54 56 57 58 59 60 61 63 64 65 66 66 66 67 69 69 69 70 71 72 72 72 72 72 73 73 74 73 72 71 70 68 66 66 66 66 67 68 67 66 64 62 59 55 52 50 49 50 50 49 47 46 45 44
42 40 38 38 40 41 43 43 42 40 39 39 39 40 41 42 44 45 46 47 46 46 46 47 48 49 50 51 52 54 55 56 57 57 56 56 56 57 59 61 63 64 65 66 67 69 70 70 71 72 73 74 74 74 74 74 75 75 74 73 72 71 69 66 65 66 66 66 67 66 65 63 61 58 55 52 50 48 50 50 47 46 46 44 42
41 40 39 39 39 41 42 42 40 39 39 39 41 42 43 45 46 47 47 47 47 47 48 49 49 50 52 53 54 56 57 57 57 54 52 51 53 55 58 62 64 66 68 70 71 71 72 73 74 75 76 77 77 76 76 75 76 76 75 74 74 72 69 66 65 65 65 66 66 66 65 63 60 58 55 52 50 49 49 48 45 45 45 43 42
41 40 40 39 40 41 42 41 40 40 40 42 43 45 46 47 47 47 46 47 47 48 49 50 51 53 54 55 56 56 56 56 54 51 50 51 54 57 61 64 67 70 72 74 76 77 77 78 78 78 80 80 80 79 78 76 75 75 74 74 74 72 69 67 66 65 65 65 65 65 64 62 60 58 55 53 51 49 48 46 44 43 44 42 43
40 39 39 40 41 41 41 40 41 41 42 44 45 46 47 46 46 47 47 47 48 49 51 53 54 55 56 56 55 54 52 52 51 51 52 54 57 60 64 67 71 75 78 79 81 82 83 83 83 83 83 83 82 81 79 76 74 73 73 73 73 71 70 68 66 65 65 65 64 63 63 61 59 56 54 53 52 49 47 45 42 42 43 42 42
39 39 39 40 40 40 40 40 41 42 44 45 45 45 46 46 47 47 48 49 50 51 53 54 55 56 56 54 53 51 49 50 51 53 55 58 61 64 68 71 75 80 83 84 85 87 87 87 87 86 85 84 82 80 77 75 73 72 71 71 71 71 70 68 67 65 64 63 62 62 61 60 58 55 53 52 51 49 47 45 42 41 43 43 42
38 38 38 38 38 39 40 41 42 43 44 44 45 45 46 47 47 48 49 51 52 53 54 54 54 55 54 53 51 50 50 51 53 56 59 61 65 68 72 75 79 83 87 88 89 90 90 89 89 87 86 83 80 77 74 72 71 70 69 69 69 69 69 67 66 64 63 62 60 60 59 57 56 55 52 50 50 48 47 46 43 40 42 43 44
36 36 36 37 38 39 39 41 42 43 44 44 45 46 47 47 48 49 51 52 53 54 54 53 53 52 52 52 51 51 53 55 57 59 62 65 69 72 75 78 82 86 89 90 89 89 88 87 87 85 83 80 77 74 72 69 68 67 66 66 67 67 67 65 63 61 60 60 58 58 57 55 54 53 50 48 48 47 46 46 42 38 38 40 42
35 36 37 37 38 38 40 42 43 43 44 45 46 47 47 48 49 51 52 52 52 52 52 51 50 50 51 52 53 54 56 58 60 63 66 69 72 75 78 81 85 88 89 89 88 86 85 84 82 81 79 77 75 72 70 67 65 63 63 63 64 64 63 62 60 58 57 57 56 55 54 52 51 51 48 47 46 45 44 43 40 36 36 38 41
36 36 36 37 38 39 41 42 43 43 45 46 47 48 49 50 51 52 51 51 50 50 49 49 49 50 52 54 56 58 59 61 64 66 69 72 75 78 81 84 87 89 89 87 85 83 82 81 79 78 77 75 74 72 70 66 64 62 60 59 60 59 59 58 57 55 54 54 54 53 52 51 49 48 46 45 44 42 41 40 38 36 37 39 40
35 35 37 38 40 41 42 42 43 45 46 47 48 49 50 51 51 50 50 49 48 48 47 48 50 52 55 57 59 61 62 64 67 70 73 76 79 81 84 87 89 90 88 86 83 82 80 79 77 76 75 74 73 71 70 67 64 61 59 57 56 56 55 54 53 52 51 50 50 50 49 48 47 46 45 43 42 41 39 38 36 36 38 39 39
36 37 39 40 41 42 42 43 45 46 48 48 49 50 50 50 49 48 47 47 46 46 47 50 53 55 57 60 62 63 64 66 70 73 76 80 82 85 87 89 90 88 86 83 81 80 78 76 74 73 72 71 70 69 67 66 63 60 58 56 54 53 53 52 50 49 47 47 47 47 46 45 44 44 43 41 40 38 37 36 35 36 38 39 36
38 40 41 41 42 43 44 46 47 48 49 50 50 50 49 48 47 46 45 44 45 46 49 52 54 57 59 62 65 67 68 70 72 75 79 82 84 87 89 88 86 83 81 79 78 76 75 73 72 71 69 68 67 65 64 62 60 58 56 55 53 52 51 49 47 46 44 43 43 44 43 42 42 41 40 39 37 34 34 34 35 36 38 37 32
40 41 42 42 43 45 46 48 49 50 50 50 50 49 47 45 44 43 43 43 45 48 51 53 56 59 60 62 65 69 72 74 76 78 81 83 84 86 86 84 80 78 76 75 73 73 72 72 71 70 67 65 63 61 59 58 57 55 54 53 52 51 50 47 44 43 42 41 41 41 40 39 39 38 38 36 34 32 33 35 36 36 36 33 28
41 42 43 44 45 47 48 49 50 50 50 50 49 47 45 43 42 41 41 43 45 48 51 54 57 60 62 64 66 69 72 76 78 80 81 82 82 83 82 79 76 74 73 72 72 72 71 71 69 67 64 62 59 58 56 53 51 50 50 50 50 49 47 45 42 41 40 40 39 38 37 37 36 36 35 34 32 31 32 35 36 35 32 28 25
41 43 44 45 47 48 49 50 50 50 49 48 47 46 45 43 42 40 40 43 46 49 51 54 57 60 63 67 69 71 73 75 77 78 79 79 79 78 76 74 72 71 70 71 72 72 71 69 67 64 60 57 55 53 49 45 41 41 43 44 45 45 43 42 40 40 39 39 37 35 35 36 35 34 33 32 31 31 33 35 35 33 28 24 23
43 44 45 46 48 49 49 50 49 48 48 47 46 45 45 44 42 41 41 43 46 49 52 55 58 61 64 67 70 72 73 74 75 75 76 75 74 74 73 71 70 69 70 71 72 72 69 67 63 59 55 52 50 48 44 38 36 36 38 38 40 40 39 38 38 37 37 36 34 34 35 35 33 31 30 29 29 30 33 33 31 29 25 23 22
44 45 46 47 48 49 49 49 48 47 46 45 44 44 43 43 43 43 44 46 47 50 53 56 60 62 64 67 69 71 72 72 71 71 71 70 70 70 70 70 69 69 71 71 71 69 67 63 59 54 50 47 45 44 42 39 38 38 38 38 38 38 38 38 36 35 34 33 33 33 35 33 31 28 27 27 28 30 31 30 27 25 23 21 20
45 45 46 47 49 49 49 48 46 45 44 43 43 43 42 42 43 45 46 48 50 52 54 57 60 63 66 68 69 70 70 69 68 67 67 66 66 67 68 68 69 70 70 68 66 65 62 57 53 49 46 43 41 39 40 40 40 40 41 41 40 40 40 38 35 32 31 32 31 32 33 32 30 28 27 28 28 28 27 25 23 23 22 19 19
45 46 47 49 49 48 47 45 44 43 42 42 42 42 42 42 44 45 47 49 51 54 55 57 60 63 66 68 69 69 68 66 64 63 63 63 64 65 66 68 69 69 67 63 60 58 54 49 45 42 40 39 37 37 37 38 38 39 39 39 38 37 37 35 32 30 30 30 30 30 31 30 29 28 29 29 28 26 24 21 21 22 21 19 21
46 47 48 49 48 46 44 43 42 41 41 42 42 41 42 43 44 46 48 50 53 55 57 59 61 63 65 67 68 68 66 62 59 59 59 60 61 63 65 67 67 66 62 58 55 53 49 45 41 38 36 35 34 34 34 34 33 33 33 33 33 33 33 32 31 30 29 29 29 29 30 30 29 29 29 27 25 23 21 20 21 22 20 20 24
47 48 48 47 45 43 41 40 40 40 41 41 41 41 42 44 45 47 49 51 53 56 58 60 62 64 66 67 67 66 63 60 57 56 56 56 58 60 62 65 65 63 59 55 52 51 48 44 41 38 36 34 33 32 32 32 31 31 32 32 32 32 31 30 29 28 27 27 28 28 29 30 29 28 26 24 23 20 19 20 22 22 21 22 26
48 47 46 44 42 40 39 39 39 40 40 41 41 41 43 44 46 48 50 52 54 56 58 60 61 62 63 64 64 63 60 58 57 56 54 54 55 57 60 62 62 60 57 53 50 48 46 44 41 39 36 34 33 32 32 32 31 31 31 31 30 29 28 27 27 27 27 28 29 29 29 30 27 25 23 22 21 19 17 19 22 21 20 23 26
46 44 43 41 39 38 38 38 39 40 40 40 41 42 43 45 47 48 50 52 54 56 57 58 59 59 59 60 59 58 57 56 55 55 53 52 52 53 55 57 58 56 53 49 47 44 42 40 39 38 36 35 33 32 32 31 31 30 30 29 29 28 27 27 28 28 29 29 30 29 29 27 24 22 21 21 19 17 17 19 21 20 20 22 24
43 41 40 38 37 37 37 38 39 40 40 40 41 42 44 45 47 49 50 52 54 55 55 55 55 55 55 55 55 55 55 54 54 52 51 51 51 50 51 53 53 51 49 46 44 41 39 37 35 35 34 33 32 31 30 30 30 30 30 30 30 30 30 30 30 30 30 29 28 27 25 23 21 20 20 20 19 17 18 20 21 20 21 23 25
41 39 38 36 35 36 37 38 39 39 39 40 41 43 44 46 47 48 50 51 52 53 53 53 52 52 52 52 52 52 52 52 52 50 49 49 49 48 48 49 49 48 47 45 44 42 40 37 34 33 32 31 31 31 31 31 32 32 32 32 32 32 32 31 30 28 27 26 25 23 20 19 19 20 20 19 18 19 21 22 22 21 23 26 27
39 37 36 35 35 36 37 38 39 39 39 40 42 43 44 46 47 48 49 50 50 51 51 50 50 49 49 49 49 50 50 50 50 49 48 48 47 47 47 46 46 46 45 45 44 44 42 39 37 34 33 32 32 32 33 34 34 34 33 32 31 30 28 27 25 24 23 22 21 18 16 16 17 19 19 18 19 21 24 24 24 24 25 27 29
37 35 34 34 35 35 37 38 38 38 39 41 42 43 44 45 46 46 47 48 48 48 48 47 47 47 46 47 47 47 48 48 47 47 46 46 45 45 45 45 44 43 43 43 43 43 41 40 38 35 33 32 33 33 33 33 32 31 30 28 26 24 24 23 23 22 20 18 16 13 12 13 16 17 18 18 20 24 26 25 24 25 26 28 30
35 34 34 34 34 35 37 37 38 39 40 41 42 43 43 44 45 45 46 46 46 46 45 45 45 45 45 45 45 45 46 46 46 45 44 44 43 43 43 43 42 41 40 40 41 41 40 38 37 36 34 34 33 32 29 28 27 26 26 24 23 21 21 21 20 18 15 11 9 9 10 12 14 15 17 19 23 25 25 23 23 25 27 28 29
34 34 33 34 34 36 37 37 38 39 40 40 41 42 43 43 44 44 45 45 45 44 44 43 43 44 44 44 44 44 44 44 44 44 43 42 42 41 41 41 40 39 38 38 38 38 38 37 36 36 34 32 29 27 26 25 25 24 23 22 20 19 18 16 13 11 8 6 7 8 10 12 14 15 18 20 22 22 21 21 22 25 26 26 26
34 33 33 34 35 35 36 37 37 38 39 40 41 42 42 42 43 43 43 43 43 42 42 42 42 42 42 42 42 42 42 42 42 42 42 41 40 39 39 38 37 36 36 35 35 35 35 34 33 32 31 28 26 24 24 24 24 23 21 20 18 17 15 12 9 6 4 3 5 7 9 12 14 15 16 16 16 16 17 19 21 23 24 24 24
34 33 33 34 34 34 35 36 37 38 39 40 41 41 41 41 41 42 42 42 41 41 41 41 41 41 41 41 41 41 40 40 40 40 40 39 38 37 36 36 35 34 33 32 32 32 32 31 30 29 28 27 25 22 21 20 21 21 20 18 17 15 12 9 6 4 4 6 7 9 10 11 11 10 10 10 10 11 13 15 19 21 22 23 25
33 33 33 33 33 34 34 35 36 37 38 39 40 40 40 40 40 41 41 40 40 40 40 40 40 40 40 39 39 39 39 38 38 38 39 38 37 36 35 34 33 33 31 30 29 29 29 29 28 27 26 26 24 22 19 17 16 16 16 16 15 13 11 8 8 9 10 10 10 9 9 8 7 7 6 6 7 8 11 14 18 21 23 24 25
33 32 32 32 32 33 34 35 36 37 38 39 40 40 40 40 40 40 40 40 39 39 39 38 39 39 39 38 38 38 38 37 37 37 37 37 36 35 34 32 31 31 30 29 28 27 26 26 25 24 23 23 22 21 18 15 13 11 10 10 10 10 10 9 8 8 9 8 8 8 7 6 5 4 4 5 7 9 12 16 20 23 24 24 23
32 31 31 32 32 33 34 35 36 37 38 39 39 40 40 40 40 39 39 39 39 38 38 38 38 38 38 38 37 37 37 37 36 36 36 36 36 35 34 32 31 29 28 28 27 26 24 23 23 22 21 20 19 18 17 15 13 11 8 6 4 4 4 4 4 4 4 4 5 5 4 3 2 2 4 6 9 12 15 19 22 23 22 22 21
Wind_Direction
246 250 253 256 261 267 272 278 282 286 289 292 295 298 302 305 309 314 316 316 316 315 314 312 310 309 308 307 307 306 306 306 306 306 306 306 306 306 306 305 305 305 304 304 303 302 301 301 301 300 299 298 298 298 297 296 296 295 296 296 296 297 297 297 296 295 294 295 296 296 296 296 296 297 297 297 297 296 296 296 296 296 296 296 296
253 256 258 262 268 275 281 285 288 290 293 296 300 303 305 308 311 314 317 317 315 314 311 309 307 306 305 304 304 304 304 304 304 305 305 305 305 305 305 304 304 304 303 303 302 301 300 300 300 299 298 297 297 297 297 297 297 297 297 297 297 298 298 298 297 296 295 295 295 295 296 297 296 296 297 296 296 296 295 295 295 295 296 296 296
260 262 264 269 276 282 286 289 291 295 298 301 304 306 308 310 312 314 316 316 314 312 309 307 305 304 304 303 303 303 303 303 303 303 304 304 304 305 305 305 305 305 305 305 304 303 303 302 302 300 299 298 298 298 297 297 297 297 297 297 297 297 297 297 296 296 296 295 295 296 297 297 297 297 297 297 297 297 296 296 295 295 295 294 294
265 267 270 275 280 284 287 290 294 300 304 307 309 311 312 313 315 316 316 315 312 310 307 306 304 303 303 303 302 302 302 303 303 303 303 304 304 305 305 306 306 307 307 307 307 306 306 305 304 303 302 301 300 299 298 298 297 296 296 296 296 295 295 294 294 294 294 294 296 297 297 297 297 298 297 297 297 297 296 296 296 296 295 293 293
267 270 274 279 283 285 289 294 299 304 308 312 315 315 314 315 316 315 314 312 309 307 305 304 303 302 302 301 301 301 302 302 302 303 303 304 304 305 306 306 307 307 307 307 307 306 306 305 305 304 303 302 301 300 299 298 297 296 296 295 295 295 294 293 293 292 292 293 294 296 295 295 296 296 295 295 295 295 295 295 295 295 294 292 292
271 274 279 283 286 289 294 299 303 305 309 313 315 314 313 313 314 313 311 308 306 304 302 301 301 300 300 300 300 301 301 302 302 303 304 305 305 306 306 306 307 306 306 306 306 306 305 305 304 304 303 302 301 300 299 298 297 297 296 296 295 294 294 293 293 293 292 293 294 294 294 294 294 294 294 293 293 293 293 293 292 292 292 291 291
276 280 285 287 290 293 297 300 302 304 307 310 311 311 309 310 311 309 307 304 301 299 299 298 299 299 299 300 300 301 302 303 303 304 305 305 306 306 306 306 306 306 306 305 305 305 304 304 303 303 302 301 301 301 300 300 299 299 298 298 297 296 295 295 294 294 294 294 294 294 295 294 294 293 293 293 293 292 292 292 291 290 290 289 289
281 286 289 290 292 295 297 299 300 302 304 307 309 308 307 308 308 305 302 299 297 296 296 296 297 298 299 300 301 302 303 304 304 305 305 305 305 305 305 305 305 304 304 304 304 304 303 303 303 303 302 302 302 302 302 302 301 301 300 300 299 298 297 297 296 296 295 295 295 295 295 295 294 294 295 294 294 293 293 291 291 290 289 288 288
286 289 290 291 293 295 298 299 300 301 303 306 308 308 306 306 305 301 298 296 295 295 295 296 297 298 299 300 302 303 304 305 305 305 305 305 305 304 304 304 304 303 303 302 302 303 303 303 303 303 303 303 303 303 303 303 302 301 301 300 299 298 298 297 297 297 297 296 296 296 296 295 296 296 296 296 296 295 294 293 292 291 290 288 288
287 289 291 292 295 298 299 300 301 302 304 306 307 307 305 304 301 298 295 294 294 294 295 296 297 298 299 301 302 303 304 304 305 305 305 305 304 304 303 303 303 302 302 302 302 302 302 302 302 302 302 302 302 302 302 302 302 301 301 300 299 299 298 297 297 297 297 297 296 296 296 295 295 296 297 296 296 297 296 295 294 292 291 290 290
285 289 292 295 298 299 301 302 302 302 304 305 305 304 303 300 297 294 293 293 293 294 294 296 297 298 299 301 302 303 303 303 303 303 303 303 303 303 303 303 303 303 303 303 302 302 302 302 302 301 301 301 301 301 301 301 301 300 300 299 299 298 298 297 296 296 296 296 296 295 295 294 294 295 296 296 296 297 296 295 294 294 294 293 292
284 288 292 296 298 300 302 302 302 302 302 303 302 301 299 296 293 292 291 291 292 293 294 295 297 298 299 300 301 302 303 303 303 303 303 303 303 303 303 303 303 303 303 303 303 303 302 302 301 301 301 301 301 301 300 300 300 299 299 298 298 297 297 296 296 295 295 296 295 294 294 294 294 294 295 297 297 296 296 295 295 295 294 293 293
284 288 292 295 297 300 301 301 299 299 300 300 299 297 295 292 290 289 289 289 291 292 293 295 297 298 299 299 300 302 302 303 303 303 303 304 304 303 303 303 303 303 303 303 303 303 303 302 301 301 301 302 302 302 301 301 300 299 299 298 298 298 297 296 296 296 296 297 296 295 295 295 295 295 296 298 297 297 296 295 295 294 293 292 292
285 288 292 295 297 299 300 298 297 297 297 296 294 292 290 288 287 287 287 289 290 292 294 296 297 298 299 299 300 302 303 303 303 304 304 304 304 304 304 304 304 304 304 304 304 303 303 303 302 301 302 302 303 303 303 303 301 300 300 299 299 299 298 298 297 297 297 297 297 296 296 296 296 296 297 298 298 297 297 295 294 293 291 291 290
286 289 292 294 295 297 297 296 295 295 294 292 290 287 286 285 285 286 288 289 291 293 295 296 297 298 300 300 301 302 303 304 304 305 305 305 305 305 305 304 304 303 303 304 304 304 303 303 303 303 303 303 304 305 305 304 303 302 301 300 301 300 300 300 299 297 297 297 296 296 296 296 297 297 298 299 299 298 296 294 292 290 289 289 289
285 290 292 293 293 294 294 293 292 292 290 288 286 285 284 285 286 287 289 292 294 295 296 298 298 300 301 301 302 302 303 304 305 305 306 306 306 306 305 305 304 304 305 305 305 305 305 306 307 306 306 306 306 307 307 305 304 302 302 301 301 301 300 300 299 297 296 295 295 295 296 296 297 298 300 300 300 299 296 291 289 289 289 289 288
285 289 290 290 290 291 291 290 290 288 286 284 283 283 284 286 288 289 291 294 295 296 297 299 300 301 302 302 303 303 303 305 306 306 307 308 308 308 307 307 307 307 307 307 307 307 308 309 310 309 309 309 308 308 307 304 302 302 301 301 300 300 300 300 297 294 293 292 292 292 294 295 296 298 299 300 301 300 295 292 291 289 287 285 285
284 286 287 287 287 288 289 289 287 285 283 282 283 284 286 288 291 293 295 296 297 298 299 300 301 302 302 303 303 304 304 306 307 309 310 311 312 311 310 309 309 309 310 309 309 309 309 310 310 310 309 308 308 306 305 302 300 299 299 299 298 298 299 297 294 291 290 290 290 290 291 293 294 296 297 298 299 298 295 293 292 288 283 282 282
283 284 285 285 286 287 288 287 285 282 282 283 284 287 289 292 295 297 298 299 300 300 301 301 301 302 303 304 305 306 307 308 309 311 312 313 313 312 312 311 311 311 311 310 309 309 310 310 309 309 308 307 306 304 302 300 298 297 296 295 295 295 296 293 290 289 289 288 288 288 289 291 292 294 295 296 296 296 295 293 289 284 282 281 280
281 283 283 284 285 286 285 283 281 281 282 285 287 290 293 296 298 299 300 300 301 301 302 302 302 303 305 307 308 309 309 310 310 311 312 312 313 312 312 311 312 312 312 311 310 310 310 310 309 308 307 306 305 303 301 299 296 295 293 292 292 292 291 289 287 287 287 287 287 287 288 289 290 291 292 293 294 294 295 294 289 282 279 277 276
279 281 282 283 283 282 280 279 279 281 284 287 290 293 296 298 299 300 301 301 302 302 303 304 304 305 307 308 309 309 309 309 309 310 310 312 312 313 312 313 314 314 313 313 312 312 311 310 309 308 307 306 304 302 300 298 296 293 291 290 289 289 288 287 287 286 286 286 286 287 286 287 287 288 290 291 292 293 295 294 289 281 277 274 273
279 280 281 280 279 278 277 278 281 284 286 290 293 296 298 299 300 301 302 303 303 305 306 306 307 307 308 308 308 308 307 308 309 310 311 312 313 314 315 316 316 316 316 315 314 313 312 311 310 309 307 305 304 302 301 299 296 293 291 289 288 288 288 288 287 287 286 286 287 286 286 286 286 286 287 289 291 293 294 294 289 280 277 276 276
278 278 277 276 275 276 278 281 284 287 290 294 296 297 299 300 301 303 304 305 306 307 308 308 308 308 307 307 306 306 307 309 310 312 313 313 314 315 316 317 318 318 317 316 315 314 313 311 310 309 308 306 305 304 303 301 298 295 292 290 289 288 288 288 288 288 288 287 286 285 285 285 285 285 285 287 289 292 293 294 291 282 277 278 279
275 275 274 274 276 278 281 284 288 291 293 295 296 298 300 301 303 305 307 308 308 308 308 308 308 307 307 306 306 307 309 311 312 313 314 315 316 317 317 318 319 318 317 316 315 314 312 311 311 310 309 308 307 306 304 302 300 297 294 292 291 290 289 289 289 289 288 287 286 285 285 285 284 284 284 285 288 290 292 294 292 284 277 277 278
272 272 273 275 278 281 284 287 290 292 294 295 297 299 302 304 306 307 308 308 308 308 308 308 307 307 307 307 308 310 311 312 314 315 317 317 318 318 319 319 319 319 317 316 314 312 311 310 310 309 308 308 307 305 304 302 300 298 295 293 291 290 289 289 288 288 288 287 286 285 285 284 283 283 284 285 286 288 291 294 292 284 278 277 279
271 272 275 277 281 284 287 289 291 293 295 298 300 302 304 306 308 308 308 308 308 307 307 307 307 308 309 310 311 312 313 314 316 317 319 319 319 320 320 320 320 318 316 314 313 311 310 309 309 308 308 307 306 305 304 303 301 299 297 295 293 291 290 289 288 287 287 287 286 285 284 283 283 283 284 285 285 286 289 290 288 282 277 278 282
272 274 277 280 283 286 288 290 292 295 298 301 303 305 306 307 308 307 307 307 307 307 308 308 310 311 311 312 313 314 315 317 318 320 320 321 321 321 320 320 319 317 316 314 312 311 311 310 310 309 309 308 306 304 303 302 302 301 299 296 295 293 291 290 288 288 288 287 287 285 283 282 283 283 284 284 284 285 286 286 284 279 276 278 282
275 277 280 282 285 287 289 292 295 298 300 302 303 305 306 306 307 307 307 308 308 308 309 311 312 313 314 315 315 316 317 319 320 321 322 322 322 322 321 321 319 317 316 314 312 312 311 311 310 310 310 309 307 305 302 300 300 300 300 298 297 295 294 292 290 290 290 289 288 285 283 283 283 283 283 283 283 283 282 282 279 275 274 278 279
277 279 282 284 286 289 291 294 296 298 300 302 303 305 305 306 306 307 307 308 309 311 312 313 315 316 317 318 320 320 320 320 321 321 322 323 323 322 322 321 319 317 315 314 312 311 311 310 310 311 311 310 309 308 304 300 298 298 298 298 297 296 295 294 293 292 292 290 288 285 284 284 283 283 283 282 281 279 278 278 276 273 275 278 275
278 280 282 285 288 290 292 295 297 298 300 302 303 304 304 305 306 307 307 309 311 314 316 317 318 318 319 321 322 323 323 323 323 322 322 323 322 322 321 320 318 316 314 312 311 310 310 310 311 311 311 311 311 310 307 302 298 297 297 297 297 297 297 295 294 293 293 291 289 287 286 285 284 283 282 280 276 275 276 275 273 273 275 274 265
278 281 283 286 289 291 293 296 298 299 301 302 302 302 302 303 305 306 308 311 313 316 317 318 319 320 321 322 322 322 323 324 324 324 324 323 322 321 320 319 317 316 314 313 312 312 311 311 311 310 310 311 312 311 308 304 301 299 297 296 296 297 296 295 294 294 293 292 291 290 288 287 285 283 282 278 272 269 272 273 272 274 273 264 251
280 283 285 288 290 293 295 297 299 300 301 301 301 301 302 302 303 304 307 311 314 316 318 319 320 321 322 323 323 323 324 324 324 324 323 322 321 320 319 319 318 316 315 314 314 313 312 311 310 310 309 309 310 311 308 306 303 300 299 298 297 296 296 294 293 294 294 293 293 292 290 290 288 284 282 279 271 267 270 271 270 270 265 249 238
282 285 288 290 293 295 297 298 299 300 300 300 301 302 303 304 304 304 306 309 313 316 318 319 321 322 323 324 325 325 326 325 324 324 323 322 321 320 320 319 319 318 318 316 315 314 313 311 310 309 308 307 308 308 306 302 297 295 295 296 296 297 296 294 293 294 294 293 292 292 294 294 290 285 284 282 276 272 271 268 266 261 248 234 231
284 287 290 292 295 296 298 298 298 298 298 300 301 303 304 306 306 308 309 310 311 313 316 319 321 322 323 324 325 326 326 325 325 324 323 322 321 320 320 320 320 321 320 319 317 316 314 312 311 309 307 306 306 306 305 301 296 293 293 294 294 294 294 294 294 295 293 290 288 292 296 297 293 288 286 283 279 274 268 263 259 248 232 225 227
288 290 292 294 296 296 297 296 297 297 298 300 302 303 305 306 308 311 313 313 314 315 317 320 322 323 324 325 326 326 326 325 325 324 323 323 322 321 321 321 322 323 322 321 320 319 318 316 314 312 310 308 307 306 304 300 297 294 293 293 292 292 293 294 296 295 291 288 287 290 295 296 293 290 285 281 275 268 260 255 248 233 220 218 219
290 291 293 294 295 295 295 295 295 296 298 300 302 304 305 308 310 313 315 316 318 319 320 321 323 324 325 326 326 326 326 326 325 325 324 324 323 323 323 324 325 325 324 324 324 324 323 322 320 319 317 315 312 309 306 304 302 300 297 296 297 298 299 299 298 294 290 287 286 289 293 294 292 288 283 277 268 257 247 242 232 218 210 210 207
290 292 293 294 294 293 293 293 294 296 299 301 302 304 307 310 313 314 316 318 321 322 324 324 324 325 326 326 326 326 326 326 326 326 326 325 324 324 325 326 328 327 326 324 325 326 327 328 327 325 322 319 316 313 311 311 311 310 307 306 305 304 302 300 297 293 290 288 288 290 291 290 287 284 279 270 257 244 234 226 215 207 204 205 204
290 291 292 292 292 291 291 292 294 297 299 301 303 306 309 311 314 316 318 321 323 325 326 327 327 327 327 327 327 327 327 326 326 327 326 325 324 325 326 328 329 328 326 323 323 324 326 328 327 325 323 320 317 314 312 311 310 309 307 306 304 301 299 297 295 293 291 289 289 290 288 285 283 281 274 260 242 229 223 215 205 200 201 206 204
289 291 291 290 289 289 289 291 295 298 300 302 304 307 310 313 315 318 321 324 326 327 328 328 328 328 328 327 327 327 327 327 327 327 327 326 326 327 328 329 329 328 326 324 323 323 324 325 324 322 320 318 316 314 312 310 309 307 306 305 303 301 300 298 296 294 290 287 286 285 284 283 281 275 263 246 227 215 213 209 201 197 201 206 205
289 290 289 287 286 287 289 293 296 299 300 303 306 309 312 315 318 321 323 325 327 329 329 329 328 328 328 328 328 328 328 328 328 328 328 327 327 329 330 331 330 328 326 326 326 327 326 325 323 321 319 317 315 314 313 311 310 309 309 309 308 306 304 301 297 293 288 285 284 283 283 283 278 265 248 230 214 205 206 203 197 193 199 206 206
289 288 285 284 284 287 291 295 297 299 302 305 308 311 314 317 320 323 325 327 328 329 329 328 328 328 328 328 328 328 328 329 329 329 328 328 330 331 332 333 332 330 329 330 332 332 332 330 326 323 321 320 319 319 318 317 317 316 315 313 311 308 304 300 296 292 289 287 286 286 284 280 267 249 231 215 204 199 196 193 190 190 196 202 204
286 284 282 281 284 288 292 296 298 300 303 307 310 313 316 319 322 324 326 327 328 329 328 328 327 327 327 327 327 327 328 328 329 328 328 329 331 332 333 335 335 334 334 335 337 338 338 337 335 331 329 329 329 327 326 325 323 320 317 313 309 305 301 298 297 295 293 291 289 286 281 270 251 231 214 203 198 194 189 183 182 186 193 198 198
282 279 279 281 285 290 293 296 298 301 305 308 312 315 318 321 323 325 326 327 328 327 327 327 326 326 326 326 326 327 327 328 328 328 327 329 331 332 334 336 337 337 338 339 340 341 342 342 342 340 338 336 333 330 327 325 322 318 314 310 307 304 302 301 300 299 297 293 287 279 268 251 231 213 201 195 191 185 180 175 175 183 192 195 195
277 276 278 282 287 291 294 297 299 303 306 310 314 317 319 322 324 325 326 327 326 325 325 325 325 325 325 325 325 326 327 328 327 327 327 329 331 332 334 336 338 339 339 340 342 342 342 341 341 339 336 332 328 325 323 322 321 319 316 313 310 309 308 307 305 302 298 292 281 266 246 226 210 198 192 186 179 175 172 170 173 184 194 196 195
274 276 279 283 288 292 295 297 301 304 308 312 316 318 321 322 324 325 325 325 324 323 323 323 324 324 324 325 325 326 327 327 327 326 327 328 330 332 334 336 338 339 340 341 342 342 341 339 337 333 330 328 326 325 327 331 332 330 328 325 322 320 316 313 309 305 299 286 265 240 214 198 190 185 180 176 172 170 169 170 177 189 195 196 196
273 276 280 285 289 293 295 298 302 306 310 314 316 319 321 322 323 323 323 323 322 322 322 322 323 323 324 325 325 326 327 327 327 326 327 328 330 332 333 335 337 339 340 341 342 343 341 340 337 334 332 331 332 334 339 344 345 344 343 341 338 335 330 326 321 313 297 267 238 216 196 184 179 174 170 170 171 170 169 172 183 192 196 197 198
273 277 281 285 289 293 296 299 303 307 311 314 316 318 320 320 321 321 321 320 320 320 320 321 322 323 323 324 325 326 326 327 327 327 327 328 329 331 332 333 336 339 340 341 341 342 342 341 340 339 339 339 340 344 349 351 353 353 354 353 352 350 347 344 337 322 296 246 208 188 175 168 163 161 162 166 169 169 170 178 189 196 198 199 201
272 276 281 286 289 293 296 300 304 307 311 313 315 317 318 319 319 319 318 318 317 318 319 320 321 321 322 324 324 325 326 326 327 327 327 327 328 329 330 332 333 336 339 341 341 341 342 342 342 343 344 344 345 348 352 356 1 6 8 7 6 4 3 4 14 44 83 105 118 128 135 139 140 142 148 156 164 169 176 186 196 201 202 202 204
272 276 281 285 289 292 296 300 304 307 310 312 314 316 316 317 316 316 316 316 316 317 317 318 319 320 321 323 323 324 324 324 325 326 327 327 327 328 329 330 331 332 335 338 339 341 342 342 343 345 346 346 348 351 354 357 6 18 26 30 30 31 36 49 67 79 84 89 96 102 108 114 118 124 135 153 170 182 189 196 204 208 208 207 209
272 277 281 285 289 292 297 300 304 307 309 312 313 314 315 315 314 314 314 314 314 315 315 316 317 318 320 321 322 323 323 323 323 324 325 326 326 326 327 328 328 329 331 333 335 338 340 342 343 344 344 345 348 353 354 354 357 8 25 40 48 54 63 73 78 74 71 72 78 84 89 96 104 121 150 177 193 201 204 207 211 213 212 212 215
272 277 281 285 289 292 296 300 303 306 309 310 312 313 313 313 312 312 312 312 312 313 314 314 316 316 317 319 320 321 321 322 322 322 322 323 325 325 325 326 326 327 328 329 331 332 334 337 339 341 342 343 346 351 355 354 350 348 350 3 25 47 67 83 88 80 70 65 64 64 64 68 85 149 196 206 211 213 214 214 214 215 215 217 222
Height
3162 3162 3163 3163 3163 3163 3163 3163 3163 3162 3162 3162 3161 3160 3160 3158 3157 3156 3155 3153 3152 3151 3150 3148 3147 3145 3144 3142 3141 3139 3138 3137 3135 3134 3133 3131 3129 3128 3126 3125 3123 3122 3120 3119 3117 3115 3113 3111 3110 3108 3105 3103 3102 3100 3098 3096 3093 3090 3088 3085 3083 3080 3076 3073 3067 3062 3064 3065 3061 3057 3057 3055 3052 3050 3048 3046 3044 3041 3039 3037 3035 3033 3031 3029 3027
3160 3160 3160 3161 3161 3161 3161 3160 3160 3160 3159 3158 3158 3157 3156 3155 3153 3152 3151 3150 3149 3148 3146 3145 3143 3142 3140 3139 3137 3136 3134 3133 3131 3130 3129 3127 3126 3124 3123 3121 3120 3118 3116 3114 3113 3110 3108 3107 3105 3103 3101 3098 3097 3095 3092 3090 3087 3084 3082 3079 3076 3075 3071 3066 3062 3056 3054 3057 3055 3051 3049 3048 3045 3043 3041 3038 3037 3034 3032 3030 3028 3026 3024 3022 3020
3157 3158 3158 3158 3158 3158 3158 3158 3157 3157 3156 3155 3154 3153 3152 3151 3150 3149 3147 3146 3145 3144 3143 3141 3139 3138 3136 3135 3133 3132 3130 3129 3128 3126 3125 3123 3122 3120 3119 3117 3115 3113 3112 3110 3108 3106 3103 3102 3100 3098 3095 3093 3091 3089 3087 3084 3081 3079 3076 3074 3070 3069 3066 3061 3056 3052 3047 3048 3048 3045 3042 3040 3038 3036 3034 3031 3029 3027 3025 3023 3021 3019 3017 3015 3013
3155 3155 3155 3155 3155 3155 3155 3154 3154 3153 3152 3152 3151 3150 3149 3147 3146 3145 3144 3143 3141 3140 3139 3137 3135 3134 3132 3131 3129 3128 3127 3125 3124 3122 3121 3119 3117 3116 3114 3112 3110 3108 3106 3104 3102 3100 3098 3096 3094 3092 3089 3087 3085 3083 3081 3078 3076 3073 3070 3068 3065 3062 3060 3056 3051 3047 3042 3039 3040 3040 3036 3032 3031 3029 3026 3023 3022 3020 3017 3015 3013 3011 3009 3007 3005
3152 3152 3153 3152 3152 3152 3151 3151 3150 3149 3148 3147 3146 3146 3145 3144 3143 3141 3140 3139 3138 3136 3135 3133 3132 3130 3128 3127 3126 3124 3123 3121 3120 3118 3116 3114 3113 3111 3109 3107 3106 3103 3101 3099 3097 3095 3092 3090 3088 3086 3083 3081 3079 3077 3075 3072 3069 3066 3064 3061 3059 3055 3052 3049 3045 3041 3037 3032 3032 3033 3030 3026 3023 3022 3019 3016 3014 3012 3010 3008 3006 3004 3001 2999 2997
3149 3150 3149 3149 3149 3148 3147 3146 3145 3145 3144 3143 3143 3142 3142 3141 3139 3138 3137 3136 3134 3133 3131 3129 3128 3126 3125 3123 3122 3120 3119 3117 3115 3113 3112 3110 3108 3106 3104 3102 3100 3098 3096 3094 3092 3090 3087 3085 3083 3080 3078 3075 3073 3070 3068 3065 3062 3060 3057 3054 3051 3047 3044 3041 3037 3033 3030 3026 3023 3023 3023 3020 3015 3013 3012 3009 3005 3003 3002 3000 2998 2996 2993 2991 2989
3146 3146 3146 3145 3145 3144 3143 3142 3142 3141 3141 3140 3140 3140 3139 3138 3136 3135 3134 3132 3131 3129 3128 3126 3124 3123 3121 3120 3118 3116 3114 3112 3111 3109 3107 3105 3103 3101 3099 3097 3095 3093 3091 3089 3087 3085 3082 3080 3077 3075 3072 3069 3066 3064 3061 3058 3055 3052 3050 3046 3043 3039 3035 3033 3029 3025 3021 3018 3016 3013 3012 3011 3008 3004 3002 3001 2997 2994 2993 2990 2988 2988 2985 2982 2981
3143 3142 3142 3141 3141 3140 3139 3139 3139 3138 3138 3137 3137 3136 3135 3134 3133 3132 3130 3128 3127 3125 3124 3122 3121 3119 3117 3115 3114 3112 3110 3108 3106 3104 3102 3100 3098 3095 3093 3092 3090 3088 3086 3084 3082 3079 3077 3075 3072 3069 3066 3063 3060 3057 3054 3050 3047 3045 3042 3038 3034 3031 3027 3024 3021 3017 3013 3009 3007 3005 3002 3001 2999 2996 2993 2992 2988 2986 2984 2980 2978 2978 2976 2973 2972
3139 3138 3138 3138 3137 3137 3136 3135 3135 3135 3134 3134 3133 3132 3131 3130 3129 3127 3126 3124 3123 3121 3120 3118 3117 3115 3113 3111 3109 3107 3105 3103 3101 3098 3096 3094 3092 3090 3088 3086 3084 3081 3080 3078 3076 3074 3071 3069 3066 3063 3060 3057 3054 3051 3048 3044 3040 3036 3035 3031 3026 3022 3019 3016 3012 3008 3004 3000 2998 2997 2993 2991 2990 2987 2984 2982 2979 2976 2975 2971 2968 2968 2966 2964 2964
3135 3135 3134 3134 3133 3133 3132 3131 3131 3131 3130 3129 3129 3128 3127 3126 3124 3123 3121 3120 3118 3117 3115 3114 3112 3111 3109 3107 3105 3103 3101 3099 3096 3094 3091 3089 3086 3084 3082 3080 3078 3075 3073 3071 3069 3067 3065 3063 3060 3057 3054 3051 3048 3045 3042 3038 3034 3029 3026 3023 3018 3014 3010 3007 3005 3000 2996 2992 2990 2988 2984 2981 2982 2979 2974 2972 2970 2966 2965 2962 2959 2958 2957 2955 2954
3131 3131 3130 3130 3129 3129 3128 3128 3127 3126 3126 3125 3125 3124 3123 3121 3120 3118 3117 3115 3114 3113 3111 3109 3108 3106 3104 3103 3101 3099 3097 3095 3092 3090 3088 3085 3082 3079 3076 3074 3072 3069 3066 3064 3062 3060 3058 3055 3053 3050 3047 3044 3041 3038 3035 3031 3027 3023 3019 3015 3011 3007 3002 2999 2996 2993 2988 2983 2982 2980 2976 2972 2972 2970 2965 2963 2961 2957 2955 2953 2950 2949 2948 2946 2945
3127 3127 3126 3125 3125 3124 3124 3123 3123 3122 3122 3121 3120 3120 3118 3117 3115 3114 3113 3111 3110 3108 3107 3105 3103 3102 3100 3098 3096 3094 3092 3090 3088 3085 3083 3080 3077 3074 3071 3069 3066 3063 3061 3058 3055 3053 3050 3048 3045 3042 3039 3035 3033 3029 3026 3023 3020 3015 3012 3008 3005 3001 2996 2991 2987 2984 2980 2976 2973 2972 2969 2965 2962 2961 2958 2954 2952 2949 2946 2945 2942 2941 2939 2938 2936
3123 3122 3122 3121 3120 3120 3119 3119 3119 3118 3117 3117 3116 3115 3114 3113 3111 3110 3108 3107 3105 3104 3102 3101 3099 3097 3095 3093 3091 3089 3087 3085 3083 3080 3078 3075 3072 3069 3067 3063 3060 3058 3055 3052 3049 3045 3042 3039 3036 3034 3031 3026 3023 3020 3016 3013 3010 3006 3002 3000 2997 2994 2990 2985 2980 2976 2972 2969 2965 2963 2963 2958 2953 2952 2951 2947 2943 2941 2938 2936 2935 2933 2931 2930 2929
3119 3118 3117 3117 3116 3115 3115 3115 3114 3114 3113 3112 3111 3110 3109 3108 3107 3105 3104 3102 3101 3099 3098 3096 3094 3092 3090 3088 3086 3084 3082 3079 3077 3075 3072 3069 3066 3063 3060 3057 3054 3051 3048 3045 3041 3038 3034 3030 3026 3025 3023 3019 3015 3011 3007 3003 2999 2995 2992 2989 2987 2985 2981 2977 2973 2968 2965 2962 2957 2953 2954 2952 2946 2944 2944 2941 2936 2933 2931 2928 2927 2925 2923 2922 2922
3114 3113 3113 3112 3112 3111 3110 3110 3110 3109 3108 3108 3107 3106 3104 3103 3102 3100 3099 3097 3096 3094 3092 3091 3089 3087 3085 3083 3082 3080 3077 3074 3072 3069 3066 3063 3060 3057 3053 3050 3047 3044 3041 3038 3034 3030 3027 3023 3019 3016 3014 3012 3009 3003 2998 2993 2989 2985 2982 2980 2977 2975 2973 2970 2965 2960 2957 2953 2948 2944 2943 2943 2940 2936 2936 2934 2929 2927 2924 2921 2919 2918 2916 2915 2915
3110 3109 3108 3108 3107 3107 3106 3106 3105 3104 3104 3103 3102 3101 3099 3098 3097 3095 3094 3092 3091 3089 3087 3086 3084 3082 3080 3078 3076 3075 3072 3069 3065 3063 3060 3056 3053 3050 3046 3042 3039 3036 3033 3030 3026 3022 3019 3015 3011 3008 3005 3003 3001 2996 2990 2984 2979 2975 2972 2970 2968 2966 2964 2962 2957 2952 2949 2945 2940 2937 2934 2933 2931 2929 2928 2926 2922 2920 2917 2914 2913 2911 2909 2908 2907
3105 3104 3104 3104 3103 3102 3101 3101 3100 3100 3099 3098 3097 3096 3094 3093 3092 3091 3089 3088 3086 3084 3083 3081 3079 3077 3075 3072 3070 3068 3067 3063 3059 3056 3053 3049 3045 3042 3038 3034 3030 3027 3024 3022 3018 3015 3011 3008 3004 3000 2996 2994 2991 2987 2982 2975 2968 2965 2962 2960 2958 2956 2955 2954 2949 2943 2940 2936 2932 2929 2927 2924 2923 2921 2920 2919 2916 2913 2909 2906 2906 2906 2903 2901 2900
3101 3100 3099 3099 3099 3097 3096 3096 3095 3095 3094 3093 3092 3091 3090 3088 3087 3086 3084 3082 3081 3079 3077 3076 3074 3071 3069 3067 3064 3061 3060 3057 3053 3049 3046 3043 3038 3034 3030 3025 3022 3019 3016 3013 3011 3008 3004 3001 2998 2993 2988 2984 2981 2977 2973 2966 2958 2954 2951 2948 2945 2944 2945 2944 2938 2934 2931 2927 2923 2921 2919 2917 2916 2914 2913 2912 2910 2907 2902 2899 2900 2899 2896 2895 2894
3096 3095 3095 3094 3093 3092 3092 3091 3091 3090 3089 3088 3087 3086 3085 3083 3082 3080 3078 3076 3075 3073 3071 3069 3068 3066 3063 3061 3058 3055 3052 3050 3048 3043 3040 3037 3033 3028 3023 3018 3014 3011 3007 3004 3002 2999 2996 2993 2990 2986 2980 2975 2970 2966 2963 2957 2949 2943 2940 2936 2932 2931 2933 2931 2926 2923 2921 2917 2914 2912 2910 2909 2908 2906 2906 2905 2903 2901 2897 2894 2894 2892 2889 2889 2889
3091 3090 3090 3089 3089 3088 3087 3087 3086 3085 3084 3083 3082 3081 3079 3078 3076 3074 3073 3071 3069 3067 3065 3063 3061 3060 3057 3054 3051 3048 3045 3042 3041 3038 3034 3031 3028 3023 3017 3012 3007 3002 2998 2995 2991 2988 2986 2983 2980 2977 2971 2964 2959 2954 2950 2946 2940 2934 2929 2924 2919 2918 2919 2917 2915 2913 2910 2907 2905 2903 2901 2901 2899 2898 2898 2897 2896 2895 2892 2889 2888 2886 2884 2883 2882
3086 3086 3085 3085 3084 3084 3083 3082 3081 3081 3080 3078 3077 3076 3074 3072 3070 3069 3067 3065 3064 3061 3059 3057 3055 3053 3051 3048 3045 3042 3039 3036 3034 3032 3029 3025 3021 3016 3010 3006 3000 2993 2987 2985 2981 2976 2973 2970 2967 2965 2960 2953 2947 2942 2937 2934 2930 2924 2918 2914 2909 2907 2905 2903 2903 2902 2899 2897 2896 2894 2892 2892 2891 2890 2890 2888 2887 2887 2886 2884 2882 2880 2878 2877 2875
3081 3081 3081 3081 3080 3079 3079 3078 3077 3076 3075 3073 3072 3070 3068 3067 3065 3063 3061 3059 3057 3055 3052 3049 3047 3045 3044 3042 3039 3036 3034 3031 3029 3025 3022 3018 3013 3008 3002 2997 2992 2984 2977 2973 2970 2965 2960 2957 2954 2951 2947 2940 2935 2930 2925 2922 2918 2913 2909 2905 2901 2898 2895 2892 2891 2891 2889 2887 2886 2884 2883 2883 2882 2881 2881 2880 2879 2879 2878 2877 2875 2874 2872 2870 2869
3077 3077 3077 3076 3076 3075 3074 3073 3072 3071 3069 3068 3067 3065 3063 3061 3059 3057 3055 3053 3051 3048 3045 3042 3039 3037 3036 3035 3033 3030 3028 3025 3022 3018 3014 3010 3005 3000 2995 2989 2983 2976 2967 2961 2957 2951 2947 2943 2940 2936 2932 2927 2922 2918 2914 2911 2906 2902 2899 2896 2892 2889 2886 2883 2881 2880 2879 2877 2876 2874 2873 2873 2873 2872 2873 2872 2871 2871 2870 2868 2867 2866 2865 2864 2862
3073 3073 3072 3072 3071 3070 3069 3068 3067 3066 3064 3063 3061 3059 3058 3056 3054 3051 3049 3046 3043 3041 3038 3034 3032 3030 3028 3026 3025 3023 3020 3018 3015 3011 3006 3001 2997 2991 2986 2981 2975 2967 2959 2952 2946 2939 2933 2930 2926 2923 2919 2914 2910 2906 2903 2900 2896 2893 2890 2886 2883 2879 2876 2874 2872 2871 2868 2867 2866 2864 2864 2865 2864 2863 2864 2865 2864 2863 2862 2860 2859 2859 2858 2858 2856
3068 3068 3068 3067 3066 3065 3064 3063 3062 3061 3059 3058 3056 3054 3053 3051 3048 3045 3043 3040 3037 3034 3031 3028 3025 3023 3021 3018 3017 3015 3013 3010 3007 3003 2998 2993 2988 2983 2977 2972 2966 2958 2949 2942 2936 2929 2924 2919 2915 2912 2908 2904 2900 2896 2893 2890 2887 2884 2881 2877 2874 2870 2867 2865 2863 2862 2859 2858 2857 2856 2855 2856 2855 2855 2856 2857 2856 2855 2854 2853 2852 2852 2852 2852 2851
3064 3064 3063 3062 3061 3060 3059 3058 3057 3055 3054 3052 3050 3048 3046 3044 3042 3039 3037 3034 3031 3028 3025 3023 3020 3017 3015 3012 3009 3008 3006 3002 2998 2994 2990 2985 2979 2974 2968 2963 2957 2949 2941 2933 2927 2920 2915 2911 2906 2902 2897 2894 2889 2885 2881 2879 2877 2874 2872 2869 2865 2861 2859 2856 2854 2852 2851 2849 2848 2847 2847 2847 2847 2848 2848 2848 2848 2848 2847 2846 2846 2845 2845 2845 2844
3059 3059 3058 3057 3056 3055 3054 3053 3051 3050 3048 3047 3045 3043 3041 3039 3036 3034 3031 3028 3026 3023 3020 3016 3013 3011 3008 3006 3002 3000 2998 2994 2989 2985 2980 2976 2970 2965 2959 2953 2946 2938 2930 2923 2916 2910 2905 2900 2896 2892 2887 2883 2879 2875 2870 2867 2865 2864 2862 2860 2857 2853 2851 2848 2846 2844 2843 2842 2841 2840 2839 2839 2839 2840 2841 2840 2840 2840 2840 2839 2839 2839 2839 2839 2838
3055 3054 3053 3052 3051 3050 3049 3047 3046 3044 3043 3041 3040 3038 3036 3034 3032 3029 3025 3023 3020 3018 3015 3011 3007 3004 3001 2998 2994 2992 2990 2987 2982 2975 2970 2965 2959 2953 2948 2942 2934 2926 2918 2910 2903 2899 2895 2890 2886 2882 2879 2874 2869 2865 2861 2858 2856 2854 2852 2851 2848 2846 2843 2841 2839 2838 2836 2835 2834 2832 2831 2831 2832 2833 2833 2833 2833 2833 2832 2832 2833 2833 2832 2832 2832
3050 3049 3048 3047 3045 3044 3043 3042 3040 3039 3038 3036 3035 3033 3031 3029 3027 3024 3021 3018 3015 3012 3009 3006 3002 2998 2995 2991 2985 2981 2979 2978 2974 2969 2963 2957 2950 2943 2936 2929 2922 2914 2908 2901 2894 2889 2886 2881 2877 2874 2870 2866 2861 2857 2853 2849 2847 2845 2844 2842 2840 2838 2836 2834 2833 2831 2830 2829 2827 2825 2825 2825 2825 2826 2826 2826 2826 2826 2826 2826 2826 2826 2826 2826 2826
3044 3043 3042 3041 3040 3039 3038 3036 3035 3033 3032 3031 3030 3028 3026 3024 3022 3019 3016 3014 3011 3007 3003 2999 2995 2991 2989 2986 2981 2974 2968 2965 2962 2959 2954 2949 2944 2938 2931 2923 2915 2906 2899 2893 2886 2882 2878 2873 2869 2865 2861 2856 2853 2849 2845 2841 2839 2837 2836 2835 2833 2831 2829 2828 2827 2825 2824 2822 2821 2820 2819 2819 2819 2819 2819 2819 2820 2820 2820 2820 2820 2820 2820 2821 2821
3040 3038 3037 3036 3035 3033 3032 3030 3029 3028 3026 3025 3024 3023 3022 3020 3018 3016 3012 3009 3006 3003 2999 2994 2990 2985 2982 2979 2977 2972 2966 2958 2952 2947 2942 2937 2933 2928 2923 2918 2910 2901 2892 2884 2878 2874 2870 2865 2861 2858 2853 2848 2845 2841 2837 2834 2831 2830 2828 2827 2826 2824 2823 2821 2820 2819 2818 2817 2816 2815 2814 2813 2813 2813 2813 2813 2813 2814 2815 2815 2814 2814 2815 2816 2817
3034 3033 3032 3031 3029 3028 3026 3025 3024 3022 3021 3019 3018 3016 3015 3015 3014 3012 3009 3005 3001 2998 2994 2990 2986 2982 2976 2970 2966 2964 2961 2956 2948 2941 2934 2927 2921 2917 2912 2908 2903 2895 2887 2879 2871 2865 2861 2856 2852 2850 2846 2842 2838 2834 2831 2828 2826 2824 2822 2820 2819 2818 2817 2815 2815 2814 2812 2811 2810 2809 2809 2808 2807 2807 2807 2807 2808 2809 2809 2809 2809 2809 2810 2811 2813
3029 3028 3026 3025 3024 3022 3021 3019 3018 3017 3015 3013 3012 3010 3008 3007 3006 3006 3004 3002 2998 2994 2990 2985 2980 2977 2972 2965 2957 2951 2948 2945 2940 2934 2928 2922 2914 2908 2902 2898 2893 2887 2880 2872 2865 2858 2853 2848 2843 2840 2838 2835 2832 2828 2825 2823 2821 2819 2817 2815 2813 2812 2811 2810 2809 2808 2807 2806 2805 2804 2804 2803 2802 2802 2802 2802 2803 2804 2804 2804 2804 2805 2806 2807 2809
3023 3022 3021 3020 3018 3017 3016 3014 3013 3011 3009 3008 3006 3004 3003 3001 2999 2998 2997 2996 2993 2990 2985 2980 2974 2969 2966 2962 2955 2946 2939 2933 2928 2923 2919 2914 2908 2902 2896 2890 2886 2880 2872 2864 2857 2850 2845 2840 2836 2833 2830 2827 2825 2822 2819 2818 2816 2814 2812 2810 2809 2807 2806 2805 2804 2803 2802 2801 2800 2800 2799 2798 2798 2798 2798 2798 2799 2799 2799 2800 2800 2801 2802 2804 2806
3018 3016 3015 3014 3013 3011 3010 3009 3007 3005 3004 3002 3001 2999 2997 2996 2994 2991 2989 2987 2985 2983 2980 2975 2969 2962 2957 2953 2950 2944 2936 2928 2921 2915 2909 2904 2900 2895 2890 2884 2879 2874 2867 2859 2851 2844 2838 2833 2829 2826 2823 2821 2819 2817 2814 2812 2811 2809 2807 2805 2803 2802 2800 2799 2799 2798 2798 2797 2796 2796 2795 2794 2794 2794 2794 2795 2794 2794 2795 2795 2797 2798 2800 2802 2804
3012 3011 3010 3009 3007 3006 3004 3003 3001 3000 2998 2997 2996 2994 2992 2990 2988 2985 2983 2980 2977 2974 2971 2968 2964 2959 2951 2944 2940 2936 2931 2925 2918 2911 2904 2898 2892 2887 2882 2877 2872 2866 2859 2853 2846 2840 2835 2829 2825 2822 2819 2816 2814 2812 2810 2808 2806 2804 2802 2800 2798 2796 2795 2794 2794 2793 2793 2792 2792 2792 2791 2791 2791 2791 2790 2790 2790 2790 2791 2792 2793 2796 2798 2800 2803
3006 3005 3004 3003 3001 3000 2998 2997 2996 2995 2993 2992 2990 2989 2987 2984 2982 2979 2976 2973 2969 2965 2962 2958 2955 2952 2947 2940 2933 2928 2924 2919 2914 2907 2900 2893 2887 2882 2876 2870 2865 2859 2853 2848 2842 2837 2832 2828 2823 2819 2816 2813 2810 2808 2805 2803 2801 2799 2798 2796 2794 2793 2792 2791 2790 2789 2789 2788 2788 2788 2788 2787 2787 2787 2786 2786 2786 2787 2788 2789 2791 2793 2796 2799 2802
3001 3000 2999 2997 2996 2994 2993 2992 2991 2990 2988 2987 2985 2983 2981 2978 2976 2972 2969 2965 2961 2957 2954 2949 2944 2940 2937 2934 2928 2922 2917 2913 2908 2904 2898 2891 2884 2878 2872 2866 2860 2854 2849 2844 2838 2833 2829 2825 2822 2818 2814 2810 2807 2804 2801 2799 2797 2796 2794 2793 2791 2790 2789 2787 2786 2785 2785 2784 2784 2784 2784 2783 2782 2783 2783 2782 2783 2784 2785 2787 2789 2791 2794 2797 2801
2995 2994 2993 2991 2990 2989 2988 2987 2986 2985 2983 2981 2979 2977 2975 2972 2969 2965 2962 2958 2954 2950 2945 2941 2937 2931 2927 2923 2920 2915 2911 2907 2902 2897 2894 2889 2882 2875 2869 2863 2857 2851 2845 2840 2835 2830 2826 2822 2818 2815 2811 2808 2805 2802 2799 2796 2794 2793 2791 2789 2788 2786 2785 2783 2782 2781 2781 2780 2780 2780 2779 2779 2778 2779 2779 2779 2780 2782 2783 2785 2788 2790 2793 2797 2801
2990 2989 2987 2986 2985 2984 2983 2982 2981 2979 2978 2976 2973 2971 2968 2965 2962 2958 2955 2951 2947 2943 2938 2934 2930 2925 2920 2915 2911 2907 2904 2900 2896 2891 2887 2884 2879 2873 2867 2860 2854 2848 2842 2838 2833 2828 2824 2819 2815 2811 2808 2805 2802 2799 2796 2793 2791 2789 2788 2786 2784 2782 2781 2780 2779 2778 2777 2776 2776 2775 2775 2775 2775 2775 2776 2777 2778 2780 2781 2784 2787 2789 2793 2797 2801
2984 2983 2981 2981 2980 2979 2978 2977 2975 2974 2972 2970 2967 2965 2962 2958 2955 2952 2948 2944 2941 2937 2933 2928 2924 2919 2914 2909 2905 2901 2897 2894 2891 2887 2883 2879 2875 2870 2865 2858 2852 2845 2840 2835 2830 2826 2822 2818 2814 2809 2805 2802 2799 2796 2793 2790 2788 2786 2784 2783 2781 2779 2778 2777 2776 2774 2773 2772 2772 2771 2771 2771 2772 2772 2773 2775 2776 2777 2779 2782 2785 2789 2793 2797 2801
2978 2977 2976 2976 2975 2974 2973 2971 2970 2968 2966 2963 2961 2958 2955 2952 2948 2945 2942 2938 2935 2931 2928 2924 2919 2914 2909 2905 2902 2898 2894 2890 2886 2883 2879 2875 2871 2867 2862 2856 2850 2844 2838 2832 2827 2823 2819 2815 2811 2807 2803 2799 2796 2793 2791 2788 2786 2784 2782 2780 2779 2777 2775 2774 2772 2771 2770 2769 2768 2768 2768 2768 2769 2770 2771 2773 2774 2776 2778 2781 2784 2788 2793 2797 2801
2972 2972 2971 2970 2970 2969 2967 2966 2964 2962 2960 2957 2954 2951 2948 2945 2942 2939 2936 2932 2929 2926 2922 2919 2914 2910 2906 2902 2898 2895 2890 2886 2882 2879 2875 2872 2868 2864 2859 2854 2848 2842 2837 2832 2827 2822 2817 2814 2810 2806 2802 2799 2796 2793 2790 2787 2784 2782 2780 2778 2776 2774 2772 2770 2769 2768 2767 2766 2765 2765 2765 2766 2767 2768 2770 2771 2772 2774 2777 2781 2784 2789 2794 2798 2801
2967 2966 2966 2965 2964 2963 2962 2960 2958 2956 2954 2951 2948 2945 2942 2939 2936 2933 2930 2927 2924 2920 2917 2913 2910 2906 2903 2899 2895 2891 2887 2883 2879 2875 2872 2868 2865 2861 2856 2851 2846 2841 2836 2832 2827 2822 2817 2814 2810 2807 2803 2800 2797 2794 2790 2787 2783 2780 2778 2776 2774 2772 2770 2768 2767 2765 2764 2764 2764 2764 2764 2765 2766 2768 2770 2771 2772 2775 2778 2781 2785 2790 2795 2798 2801
2961 2961 2960 2960 2959 2957 2956 2954 2952 2950 2948 2945 2942 2939 2936 2933 2930 2927 2924 2921 2918 2915 2912 2908 2904 2901 2898 2895 2891 2887 2883 2880 2876 2872 2869 2865 2862 2858 2854 2849 2845 2840 2836 2831 2827 2822 2818 2814 2810 2807 2804 2801 2798 2794 2791 2787 2783 2780 2777 2774 2772 2770 2768 2767 2765 2764 2764 2763 2763 2764 2764 2765 2767 2769 2770 2772 2774 2777 2780 2783 2787 2792 2796 2798 2801
2956 2956 2955 2954 2953 2952 2950 2948 2946 2944 2942 2939 2937 2934 2931 2928 2925 2922 2919 2916 2913 2910 2906 2903 2900 2896 2893 2890 2887 2883 2880 2876 2873 2869 2866 2862 2859 2855 2851 2847 2843 2839 2835 2831 2827 2823 2819 2814 2811 2807 2804 2801 2798 2795 2791 2788 2784 2781 2777 2774 2772 2770 2768 2767 2766 2765 2765 2765 2765 2765 2766 2767 2769 2770 2772 2774 2777 2779 2782 2786 2790 2794 2797 2799 2802
2951 2950 2949 2948 2947 2946 2944 2943 2941 2939 2936 2934 2931 2929 2926 2923 2920 2917 2914 2911 2908 2905 2901 2898 2895 2892 2889 2886 2883 2879 2876 2873 2869 2866 2863 2859 2856 2853 2849 2845 2842 2838 2834 2830 2826 2823 2819 2815 2812 2808 2805 2801 2798 2795 2792 2789 2785 2782 2779 2776 2774 2772 2770 2769 2768 2768 2767 2767 2768 2768 2769 2770 2772 2774 2775 2778 2780 2782 2785 2788 2792 2795 2797 2800 2802
2945 2944 2944 2943 2942 2940 2939 2937 2935 2933 2931 2929 2926 2923 2920 2917 2915 2912 2909 2906 2903 2900 2897 2894 2891 2888 2885 2882 2879 2875 2872 2869 2866 2863 2860 2857 2854 2850 2847 2843 2840 2836 2833 2830 2826 2823 2819 2816 2812 2809 2806 2803 2799 2796 2794 2791 2788 2784 2781 2779 2776 2775 2773 2772 2772 2771 2771 2771 2772 2772 2773 2774 2775 2777 2779 2781 2783 2785 2787 2790 2793 2795 2798 2799 2801
2939 2939 2938 2937 2936 2935 2933 2932 2930 2928 2926 2924 2921 2918 2915 2912 2909 2906 2904 2901 2898 2895 2892 2890 2887 2884 2881 2878 2875 2872 2869 2866 2863 2860 2857 2854 2851 2848 2845 2841 2838 2835 2832 2829 2826 2822 2819 2816 2813 2810 2807 2804 2801 2798 2795 2793 2791 2788 2785 2783 2781 2779 2778 2777 2777 2776 2776 2776 2776 2776 2777 2778 2779 2780 2781 2783 2785 2787 2789 2792 2794 2796 2797 2799 2801
2933 2933 2932 2931 2930 2929 2928 2926 2924 2923 2920 2918 2915 2912 2909 2907 2904 2901 2898 2896 2893 2891 2888 2885 2883 2880 2877 2874 2871 2868 2865 2862 2860 2857 2854 2851 2849 2846 2843 2840 2836 2833 2831 2828 2825 2822 2819 2816 2813 2811 2808 2805 2802 2799 2797 2795 2793 2791 2789 2787 2785 2783 2782 2781 2781 2780 2780 2780 2780 2780 2781 2781 2782 2783 2784 2785 2787 2788 2790 2792 2794 2795 2797 2799 2801
2928 2927 2927 2926 2925 2923 2922 2921 2919 2917 2915 2912 2909 2907 2904 2901 2899 2896 2893 2891 2889 2886 2884 2881 2878 2875 2872 2870 2867 2864 2861 2859 2856 2854 2851 2849 2846 2843 2841 2838 2835 2832 2829 2826 2824 2821 2818 2816 2813 2811 2809 2806 2804 2801 2798 2796 2795 2793 2791 2789 2788 2786 2785 2784 2784 2783 2783 2783 2783 2783 2783 2784 2784 2785 2786 2787 2788 2789 2791 2792 2794 2795 2797 2798 2800